Flag for Morocco Weather past 2 weeks in Tangier, Morocco

Now
66 °F

Scattered clouds.


Feels Like: 66 °F
Forecast: 58 / 69 °F
Wind: 13 mph from West

Location: Tanger Aerodrome


UV Index: 7 (High)

Visibility: 5 mi


Pressure: 29.98 "Hg

Humidity: 73%

Dew point: 57 °F

Location of TangierLocation

Historic Weather in Tangier

°F

Tangier temperature yesterday

Maximum temperature yesterday: 72 °F (at 11:00 AM)
Minimum temperature yesterday: 52 °F (at 6:30 AM)
Average temperature yesterday: 61 °F

Past Weeks' High & Low Weather Summary

 TemperatureHumidityPressure
High81 °F (Apr 8, 2:00 PM)94% (Apr 5, 12:30 AM)30.27 "Hg (Apr 5, 12:30 AM)
Low48 °F (Apr 5, 4:30 AM)38% (Apr 9, 3:30 PM)29.86 "Hg (Apr 14, 2:30 AM)
Average64 °F73%30.03 "Hg
* Reported Apr 3 4:00 PM — Apr 18 4:30 PM, Tangier, Weather by CustomWeather, © 2014

Note: Actual official high and low records may vary slightly from our data, if they occured in-between our weather recording intervals... More about our weather records

Advertising

Historic Weather Conditions — Data for Previous 24 hours

 ConditionsComfort  
Time TempWeatherWind HumidityBarometerVisibility
4:30 PM
Apr 18
68 °FScattered clouds.16 mph69%29.98 "Hg5 mi
4:00 PM68 °FScattered clouds.17 mph69%29.98 "Hg5 mi
3:30 PM70 °FScattered clouds.16 mph60%30.01 "Hg5 mi
3:00 PM70 °FScattered clouds.16 mph60%30.01 "Hg5 mi
2:30 PM70 °FScattered clouds.14 mph60%30.01 "Hg5 mi
2:00 PM70 °FScattered clouds.15 mph60%30.01 "Hg5 mi
1:00 PM70 °FScattered clouds.18 mph60%30.04 "Hg5 mi
12:30 PM70 °FPartly sunny.17 mph60%30.04 "Hg5 mi
12:00 PM68 °FPartly sunny.14 mph64%30.04 "Hg5 mi
11:30 AM68 °FBroken clouds.15 mph69%30.04 "Hg4 mi
11:00 AM68 °FBroken clouds.14 mph69%30.04 "Hg4 mi
10:30 AM66 °FBroken clouds.12 mph68%30.04 "Hg4 mi
10:00 AM64 °FBroken clouds.13 mph73%30.04 "Hg4 mi
9:30 AM64 °FBroken clouds.10 mph73%30.04 "Hg4 mi
9:00 AM64 °FBroken clouds.5 mph73%30.01 "Hg4 mi
8:30 AM63 °FBroken clouds.7 mph77%30.01 "Hg4 mi
8:00 AM63 °FBroken clouds.6 mph77%30.01 "Hg4 mi
7:30 AM63 °FBroken clouds.6 mph77%30.01 "Hg4 mi
7:00 AM63 °FBroken clouds.6 mph77%30.01 "Hg4 mi
6:30 AM63 °FBroken clouds.5 mph77%30.01 "Hg4 mi
6:00 AM63 °FBroken clouds.5 mph83%30.01 "Hg4 mi
1:00 AM63 °FPartly cloudy.2 mph88%30.04 "Hg3 mi
12:30 AM63 °FPartly cloudy.3 mph88%30.04 "Hg3 mi
12:00 AM57 °FPartly cloudy.No wind94%30.04 "Hg3 mi
11:30 PM
Apr 17
55 °FPartly cloudy.No wind94%30.04 "Hg4 mi
11:00 PM55 °FPartly cloudy.No wind88%30.01 "Hg4 mi
10:30 PM55 °FPartly cloudy.No wind94%30.01 "Hg4 mi
10:00 PM57 °FPartly cloudy.No wind88%30.01 "Hg4 mi
9:30 PM57 °FPartly cloudy.No wind88%29.98 "Hg4 mi
9:00 PM59 °FPartly cloudy.No wind88%29.98 "Hg4 mi
8:30 PM61 °FPartly cloudy.2 mph83%29.98 "Hg4 mi
8:00 PM63 °FPassing clouds.3 mph83%29.98 "Hg4 mi
7:30 PM64 °FPassing clouds.6 mph78%29.98 "Hg4 mi
7:00 PM64 °FPassing clouds.6 mph83%29.98 "Hg4 mi
6:00 PM68 °FScattered clouds.7 mph73%29.98 "Hg4 mi
5:30 PM68 °FScattered clouds.6 mph73%29.98 "Hg4 mi
Weather by CustomWeather, © 2014

See weather overview